Location: Dodgeville, WI 53533, USA
(43.0344°N, 90.0900°W)
Time: 03:14:24
(UTC-06:00)

X-37B - Pass Details

Date: 02 February 2021
Orbit: 383 x 391 km, 45.0° (Epoch: 10 February)

Event Time Altitude Azimuth Distance (km) Brightness Sun altitude
Rises 17:51:02 0° 280° (W) 2,269 5.8 -7.1°
Reaches altitude 10° 17:53:26 10° 263° (W) 1,413 5.1 -7.5°
Maximum altitude 17:55:50 20° 214° (SW) 971 3.3 -7.9°
Drops below altitude 10° 17:58:14 10° 165° (SSE) 1,411 3.4 -8.4°
Sets 18:00:39 0° 147° (SSE) 2,263 4.3 -8.8°
